Time,TemperatureF,DewpointF,PressureIn,WindDirection,WindDirectionDegrees,WindSpeedMPH,WindSpeedGustMPH,Humidity,HourlyPrecipIn,Conditions,Clouds,dailyrainin,SoftwareType,DateUTC
2013-04-25 00:02:00,42.0,32.0,-100.00,West,280,12.0,22.0,66,0.00,,,-99.99,,2013-04-25 05:02:00,
2013-04-25 00:12:00,42.0,32.0,-100.00,WNW,295,16.0,26.0,67,0.00,,,-99.99,,2013-04-25 05:12:00,
2013-04-25 00:21:00,41.0,32.0,-100.00,WNW,290,14.0,23.0,69,0.00,,,-99.99,,2013-04-25 05:21:00,
2013-04-25 00:32:00,40.0,32.0,-100.00,WNW,290,11.0,17.0,71,0.00,,,-99.99,,2013-04-25 05:32:00,
2013-04-25 00:42:00,40.0,32.0,-100.00,WNW,290,11.0,17.0,71,0.00,,,-99.99,,2013-04-25 05:42:00,
2013-04-25 00:51:00,40.0,32.0,-100.00,WNW,295,9.0,18.0,72,0.00,,,-99.99,,2013-04-25 05:51:00,
2013-04-25 01:02:00,40.0,32.0,-100.00,WNW,295,9.0,18.0,72,0.00,,,-99.99,,2013-04-25 06:02:00,
2013-04-25 01:11:00,40.0,32.0,-100.00,WNW,295,9.0,18.0,72,0.00,,,-99.99,,2013-04-25 06:11:00,
2013-04-25 01:22:00,39.0,31.0,-100.00,WNW,300,9.0,16.0,74,0.00,,,-99.99,,2013-04-25 06:22:00,
2013-04-25 01:32:00,38.0,31.0,-100.00,WNW,285,7.0,14.0,75,0.00,,,-99.99,,2013-04-25 06:32:00,
2013-04-25 01:42:00,38.0,31.0,-100.00,WNW,285,7.0,14.0,75,0.00,,,-99.99,,2013-04-25 06:42:00,
2013-04-25 01:52:00,37.0,31.0,-100.00,WNW,295,9.0,13.0,76,0.00,,,-99.99,,2013-04-25 06:52:00,
2013-04-25 02:02:00,37.0,31.0,-100.00,WNW,295,9.0,13.0,76,0.00,,,-99.99,,2013-04-25 07:02:00,
2013-04-25 02:11:00,37.0,31.0,-100.00,WNW,295,6.0,11.0,77,0.00,,,-99.99,,2013-04-25 07:11:00,
2013-04-25 02:21:00,37.0,31.0,-100.00,West,280,7.0,12.0,77,0.00,,,-99.99,,2013-04-25 07:21:00,
2013-04-25 02:32:00,36.0,30.0,-100.00,WNW,285,6.0,11.0,78,0.00,,,-99.99,,2013-04-25 07:32:00,
2013-04-25 02:42:00,36.0,30.0,-100.00,WNW,285,6.0,11.0,78,0.00,,,-99.99,,2013-04-25 07:42:00,
2013-04-25 02:52:00,36.0,30.0,-100.00,West,280,7.0,9.0,79,0.00,,,-99.99,,2013-04-25 07:52:00,
2013-04-25 03:02:00,36.0,30.0,-100.00,West,280,7.0,9.0,79,0.00,,,-99.99,,2013-04-25 08:02:00,
2013-04-25 03:11:00,36.0,30.0,-100.00,West,280,8.0,9.0,80,0.00,,,-99.99,,2013-04-25 08:11:00,
2013-04-25 03:21:00,35.0,30.0,-100.00,WNW,285,6.0,9.0,80,0.00,,,-99.99,,2013-04-25 08:21:00,
2013-04-25 03:31:00,35.0,30.0,-100.00,WNW,285,5.0,9.0,80,0.00,,,-99.99,,2013-04-25 08:31:00,
2013-04-25 03:41:00,35.0,30.0,-100.00,WNW,285,5.0,9.0,80,0.00,,,-99.99,,2013-04-25 08:41:00,
2013-04-25 03:51:00,35.0,30.0,-100.00,West,270,6.0,8.0,80,0.00,,,-99.99,,2013-04-25 08:51:00,
2013-04-25 04:01:00,35.0,30.0,-100.00,West,270,6.0,8.0,80,0.00,,,-99.99,,2013-04-25 09:01:00,
2013-04-25 04:11:00,35.0,30.0,-100.00,West,270,6.0,8.0,80,0.00,,,-99.99,,2013-04-25 09:11:00,
2013-04-25 04:21:00,35.0,30.0,-100.00,West,270,6.0,9.0,80,0.00,,,-99.99,,2013-04-25 09:21:00,
2013-04-25 04:33:00,35.0,30.0,-100.00,West,270,6.0,9.0,80,0.00,,,-99.99,,2013-04-25 09:33:00,
2013-04-25 04:42:00,35.0,30.0,-100.00,West,270,6.0,9.0,80,0.00,,,-99.99,,2013-04-25 09:42:00,
2013-04-25 04:52:00,35.0,30.0,-100.00,West,270,6.0,7.0,80,0.00,,,-99.99,,2013-04-25 09:52:00,
2013-04-25 05:02:00,35.0,30.0,-100.00,West,270,6.0,7.0,80,0.00,,,-99.99,,2013-04-25 10:02:00,
2013-04-25 05:12:00,35.0,29.0,-100.00,West,275,5.0,8.0,80,0.00,,,-99.99,,2013-04-25 10:12:00,
2013-04-25 05:22:00,34.0,29.0,-100.00,West,280,4.0,6.0,81,0.00,,,-99.99,,2013-04-25 10:22:00,
2013-04-25 05:32:00,34.0,29.0,-100.00,West,280,4.0,6.0,81,0.00,,,-99.99,,2013-04-25 10:32:00,
2013-04-25 05:42:00,34.0,29.0,-100.00,West,280,4.0,6.0,81,0.00,,,-99.99,,2013-04-25 10:42:00,
2013-04-25 05:52:00,34.0,29.0,-100.00,West,270,3.0,6.0,81,0.00,,,-99.99,,2013-04-25 10:52:00,
2013-04-25 06:02:00,34.0,29.0,-100.00,West,270,3.0,6.0,81,0.00,,,-99.99,,2013-04-25 11:02:00,
2013-04-25 06:12:00,34.0,29.0,-100.00,West,265,4.0,6.0,82,0.00,,,-99.99,,2013-04-25 11:12:00,
2013-04-25 06:22:00,34.0,29.0,-100.00,West,280,4.0,7.0,82,0.00,,,-99.99,,2013-04-25 11:22:00,
2013-04-25 06:32:00,34.0,29.0,-100.00,West,275,6.0,7.0,82,0.00,,,-99.99,,2013-04-25 11:32:00,
2013-04-25 06:42:00,34.0,29.0,-100.00,West,275,6.0,7.0,82,0.00,,,-99.99,,2013-04-25 11:42:00,
2013-04-25 06:51:00,34.0,29.0,-100.00,WNW,290,5.0,7.0,82,0.00,,,-99.99,,2013-04-25 11:51:00,
2013-04-25 07:01:00,34.0,29.0,-100.00,WNW,290,5.0,7.0,82,0.00,,,-99.99,,2013-04-25 12:01:00,
2013-04-25 07:12:00,34.0,29.0,-100.00,West,270,6.0,8.0,82,0.00,,,-99.99,,2013-04-25 12:12:00,
2013-04-25 07:21:00,34.0,29.0,-100.00,WNW,285,4.0,7.0,82,0.00,,,-99.99,,2013-04-25 12:21:00,
2013-04-25 07:32:00,35.0,30.0,-100.00,WNW,285,4.0,6.0,82,0.00,,,-99.99,,2013-04-25 12:32:00,
2013-04-25 07:42:00,35.0,30.0,-100.00,WNW,285,4.0,6.0,82,0.00,,,-99.99,,2013-04-25 12:42:00,
2013-04-25 07:51:00,35.0,30.0,-100.00,West,280,5.0,7.0,81,0.00,,,-99.99,,2013-04-25 12:51:00,
2013-04-25 08:02:00,35.0,30.0,-100.00,West,280,5.0,7.0,81,0.00,,,-99.99,,2013-04-25 13:02:00,
2013-04-25 08:11:00,36.0,31.0,-100.00,NW,305,7.0,9.0,80,0.00,,,-99.99,,2013-04-25 13:11:00,
2013-04-25 08:21:00,36.0,31.0,-100.00,NW,305,7.0,9.0,80,0.00,,,-99.99,,2013-04-25 13:21:00,
2013-04-25 08:32:00,37.0,31.0,-100.00,WNW,300,7.0,13.0,75,0.00,,,-99.99,,2013-04-25 13:32:00,
2013-04-25 08:42:00,37.0,31.0,-100.00,WNW,300,7.0,13.0,75,0.00,,,-99.99,,2013-04-25 13:42:00,
2013-04-25 08:52:00,38.0,30.0,-100.00,NW,305,10.0,13.0,73,0.00,,,-99.99,,2013-04-25 13:52:00,
2013-04-25 09:02:00,38.0,30.0,-100.00,NW,305,10.0,13.0,73,0.00,,,-99.99,,2013-04-25 14:02:00,
2013-04-25 09:11:00,38.0,29.0,-100.00,WNW,300,7.0,12.0,69,0.00,,,-99.99,,2013-04-25 14:11:00,
2013-04-25 09:21:00,39.0,29.0,-100.00,NW,315,7.0,12.0,67,0.00,,,-99.99,,2013-04-25 14:21:00,
2013-04-25 09:32:00,40.0,29.0,-100.00,West,275,6.0,11.0,62,0.00,,,-99.99,,2013-04-25 14:32:00,
2013-04-25 09:42:00,40.0,29.0,-100.00,West,275,6.0,11.0,62,0.00,,,-99.99,,2013-04-25 14:42:00,
2013-04-25 09:51:00,42.0,27.0,-100.00,NW,305,7.0,14.0,56,0.00,,,-99.99,,2013-04-25 14:51:00,
2013-04-25 10:02:00,42.0,27.0,-100.00,NW,305,7.0,14.0,56,0.00,,,-99.99,,2013-04-25 15:02:00,
2013-04-25 10:11:00,41.0,26.0,-100.00,NW,320,9.0,13.0,54,0.00,,,-99.99,,2013-04-25 15:11:00,
2013-04-25 10:21:00,41.0,26.0,-100.00,NW,320,9.0,13.0,54,0.00,,,-99.99,,2013-04-25 15:21:00,
2013-04-25 10:33:00,44.0,26.0,-100.00,NW,305,7.0,12.0,49,0.00,,,-99.99,,2013-04-25 15:33:00,
2013-04-25 10:42:00,44.0,26.0,-100.00,NW,305,7.0,12.0,49,0.00,,,-99.99,,2013-04-25 15:42:00,
2013-04-25 10:52:00,45.0,25.0,-100.00,NW,315,6.0,12.0,45,0.00,,,-99.99,,2013-04-25 15:52:00,
2013-04-25 11:02:00,45.0,25.0,-100.00,NW,315,6.0,12.0,45,0.00,,,-99.99,,2013-04-25 16:02:00,
2013-04-25 11:13:00,46.0,26.0,-100.00,NNW,330,5.0,12.0,44,0.00,,,-99.99,,2013-04-25 16:13:00,
2013-04-25 11:24:00,46.0,25.0,-100.00,NW,315,4.0,11.0,43,0.00,,,-99.99,,2013-04-25 16:24:00,
2013-04-25 11:32:00,47.0,25.0,-100.00,WNW,290,6.0,12.0,41,0.00,,,-99.99,,2013-04-25 16:32:00,
2013-04-25 11:42:00,47.0,25.0,-100.00,WNW,290,6.0,12.0,41,0.00,,,-99.99,,2013-04-25 16:42:00,
2013-04-25 11:52:00,48.0,24.0,-100.00,West,280,6.0,14.0,39,0.00,,,-99.99,,2013-04-25 16:52:00,
2013-04-25 12:02:00,48.0,24.0,-100.00,West,280,6.0,14.0,39,0.00,,,-99.99,,2013-04-25 17:02:00,
2013-04-25 12:11:00,48.0,24.0,-100.00,WNW,285,9.0,12.0,38,0.00,,,-99.99,,2013-04-25 17:11:00,
2013-04-25 12:22:00,49.0,24.0,-100.00,WNW,285,7.0,12.0,37,0.00,,,-99.99,,2013-04-25 17:22:00,
2013-04-25 12:32:00,49.0,24.0,-100.00,West,275,7.0,14.0,36,0.00,,,-99.99,,2013-04-25 17:32:00,
2013-04-25 12:42:00,49.0,24.0,-100.00,West,275,7.0,14.0,36,0.00,,,-99.99,,2013-04-25 17:42:00,
2013-04-25 12:53:00,52.0,25.0,-100.00,WNW,290,5.0,12.0,35,0.00,,,-99.99,,2013-04-25 17:53:00,
2013-04-25 13:01:00,52.0,25.0,-100.00,WNW,290,5.0,12.0,35,0.00,,,-99.99,,2013-04-25 18:01:00,
2013-04-25 13:11:00,53.0,26.0,-100.00,South,180,1.0,14.0,34,0.00,,,-99.99,,2013-04-25 18:11:00,
2013-04-25 13:22:00,52.0,24.0,-100.00,NW,325,4.0,10.0,32,0.00,,,-99.99,,2013-04-25 18:22:00,
2013-04-25 13:32:00,53.0,24.0,-100.00,West,280,6.0,12.0,32,0.00,,,-99.99,,2013-04-25 18:32:00,
2013-04-25 13:42:00,53.0,24.0,-100.00,West,280,6.0,12.0,32,0.00,,,-99.99,,2013-04-25 18:42:00,
2013-04-25 13:52:00,53.0,24.0,-100.00,SW,235,6.0,11.0,31,0.00,,,-99.99,,2013-04-25 18:52:00,
2013-04-25 14:01:00,53.0,24.0,-100.00,SW,235,6.0,11.0,31,0.00,,,-99.99,,2013-04-25 19:01:00,
2013-04-25 14:12:00,54.0,24.0,-100.00,West,260,9.0,11.0,30,0.00,,,-99.99,,2013-04-25 19:12:00,
2013-04-25 14:21:00,55.0,24.0,-100.00,South,190,6.0,14.0,30,0.00,,,-99.99,,2013-04-25 19:21:00,
2013-04-25 14:31:00,56.0,24.0,-100.00,WNW,290,4.0,10.0,28,0.00,,,-99.99,,2013-04-25 19:31:00,
2013-04-25 14:41:00,56.0,24.0,-100.00,WNW,290,4.0,10.0,28,0.00,,,-99.99,,2013-04-25 19:41:00,
2013-04-25 14:52:00,56.0,24.0,-100.00,SW,235,8.0,14.0,28,0.00,,,-99.99,,2013-04-25 19:52:00,
2013-04-25 15:02:00,56.0,24.0,-100.00,SW,235,8.0,14.0,28,0.00,,,-99.99,,2013-04-25 20:02:00,
2013-04-25 15:11:00,57.0,24.0,-100.00,South,190,7.0,17.0,28,0.00,,,-99.99,,2013-04-25 20:11:00,
2013-04-25 15:22:00,58.0,25.0,-100.00,WSW,250,4.0,8.0,27,0.00,,,-99.99,,2013-04-25 20:22:00,
2013-04-25 15:32:00,59.0,25.0,-100.00,SSW,195,6.0,9.0,26,0.00,,,-99.99,,2013-04-25 20:32:00,
2013-04-25 15:42:00,59.0,25.0,-100.00,SSW,195,6.0,9.0,26,0.00,,,-99.99,,2013-04-25 20:42:00,
2013-04-25 15:52:00,58.0,24.0,-100.00,SSW,210,9.0,17.0,26,0.00,,,-99.99,,2013-04-25 20:52:00,
2013-04-25 16:01:00,58.0,24.0,-100.00,SSW,210,9.0,17.0,26,0.00,,,-99.99,,2013-04-25 21:01:00,
2013-04-25 16:11:00,59.0,24.0,-100.00,SW,235,6.0,14.0,26,0.00,,,-99.99,,2013-04-25 21:11:00,
2013-04-25 16:21:00,59.0,24.0,-100.00,SSW,200,6.0,16.0,26,0.00,,,-99.99,,2013-04-25 21:21:00,
2013-04-25 16:33:00,60.0,25.0,-100.00,South,190,4.0,15.0,26,0.00,,,-99.99,,2013-04-25 21:33:00,
2013-04-25 16:42:00,60.0,25.0,-100.00,South,190,4.0,15.0,26,0.00,,,-99.99,,2013-04-25 21:42:00,
2013-04-25 16:52:00,60.0,25.0,-100.00,SSE,150,7.0,14.0,25,0.00,,,-99.99,,2013-04-25 21:52:00,
2013-04-25 17:02:00,60.0,25.0,-100.00,SSE,150,7.0,14.0,25,0.00,,,-99.99,,2013-04-25 22:02:00,
2013-04-25 17:12:00,61.0,25.0,-100.00,South,185,7.0,14.0,25,0.00,,,-99.99,,2013-04-25 22:12:00,
2013-04-25 17:22:00,61.0,25.0,-100.00,SSE,155,9.0,14.0,25,0.00,,,-99.99,,2013-04-25 22:22:00,
2013-04-25 17:33:00,61.0,26.0,-100.00,South,175,11.0,16.0,25,0.00,,,-99.99,,2013-04-25 22:33:00,
2013-04-25 17:42:00,61.0,26.0,-100.00,South,175,11.0,16.0,25,0.00,,,-99.99,,2013-04-25 22:42:00,
2013-04-25 17:52:00,61.0,26.0,-100.00,South,170,11.0,17.0,26,0.00,,,-99.99,,2013-04-25 22:52:00,
2013-04-25 18:02:00,61.0,26.0,-100.00,South,170,11.0,17.0,26,0.00,,,-99.99,,2013-04-25 23:02:00,
2013-04-25 18:12:00,60.0,26.0,-100.00,SE,145,13.0,17.0,26,0.00,,,-99.99,,2013-04-25 23:12:00,
2013-04-25 18:22:00,60.0,26.0,-100.00,SSE,160,11.0,20.0,26,0.00,,,-99.99,,2013-04-25 23:22:00,
2013-04-25 18:32:00,60.0,26.0,-100.00,SSE,160,10.0,17.0,26,0.00,,,-99.99,,2013-04-25 23:32:00,
2013-04-25 18:41:00,60.0,26.0,-100.00,SSE,160,10.0,17.0,26,0.00,,,-99.99,,2013-04-25 23:41:00,
2013-04-25 18:52:00,60.0,26.0,-100.00,SSE,165,10.0,16.0,26,0.00,,,-99.99,,2013-04-25 23:52:00,
2013-04-25 19:01:00,60.0,26.0,-100.00,SSE,165,10.0,16.0,26,0.00,,,-99.99,,2013-04-26 00:01:00,
2013-04-25 19:11:00,60.0,27.0,-100.00,SSE,160,12.0,17.0,27,0.00,,,-99.99,,2013-04-26 00:11:00,
2013-04-25 19:21:00,60.0,27.0,-100.00,SSE,160,11.0,16.0,27,0.00,,,-99.99,,2013-04-26 00:21:00,
2013-04-25 19:32:00,60.0,27.0,-100.00,SSE,160,8.0,17.0,28,0.00,,,-99.99,,2013-04-26 00:32:00,
2013-04-25 19:41:00,60.0,27.0,-100.00,SSE,160,8.0,17.0,28,0.00,,,-99.99,,2013-04-26 00:41:00,
2013-04-25 19:51:00,59.0,26.0,-100.00,SSE,160,11.0,15.0,28,0.00,,,-99.99,,2013-04-26 00:51:00,
2013-04-25 20:01:00,59.0,26.0,-100.00,SSE,160,11.0,15.0,28,0.00,,,-99.99,,2013-04-26 01:01:00,
2013-04-25 20:11:00,58.0,27.0,-100.00,SE,140,10.0,15.0,29,0.00,,,-99.99,,2013-04-26 01:11:00,
2013-04-25 20:21:00,57.0,26.0,-100.00,SE,135,9.0,15.0,30,0.00,,,-99.99,,2013-04-26 01:21:00,
2013-04-25 20:31:00,55.0,27.0,-100.00,SE,140,9.0,12.0,33,0.00,,,-99.99,,2013-04-26 01:31:00,
2013-04-25 20:41:00,55.0,27.0,-100.00,SE,140,9.0,12.0,33,0.00,,,-99.99,,2013-04-26 01:41:00,
2013-04-25 20:52:00,54.0,28.0,-100.00,SE,130,10.0,12.0,36,0.00,,,-99.99,,2013-04-26 01:52:00,
2013-04-25 21:02:00,54.0,28.0,-100.00,SE,130,10.0,12.0,36,0.00,,,-99.99,,2013-04-26 02:02:00,
2013-04-25 21:11:00,54.0,28.0,-100.00,SE,135,9.0,12.0,37,0.00,,,-99.99,,2013-04-26 02:11:00,
2013-04-25 21:21:00,53.0,28.0,-100.00,SE,130,8.0,12.0,38,0.00,,,-99.99,,2013-04-26 02:21:00,
2013-04-25 21:32:00,52.0,29.0,-100.00,SE,140,10.0,12.0,40,0.00,,,-99.99,,2013-04-26 02:32:00,
2013-04-25 21:42:00,52.0,29.0,-100.00,SE,140,10.0,12.0,40,0.00,,,-99.99,,2013-04-26 02:42:00,
2013-04-25 21:51:00,52.0,29.0,-100.00,SE,140,9.0,12.0,42,0.00,,,-99.99,,2013-04-26 02:51:00,
2013-04-25 22:01:00,52.0,29.0,-100.00,SE,140,9.0,12.0,42,0.00,,,-99.99,,2013-04-26 03:01:00,
2013-04-25 22:11:00,51.0,30.0,-100.00,SE,145,10.0,12.0,42,0.00,,,-99.99,,2013-04-26 03:11:00,
2013-04-25 22:21:00,51.0,30.0,-100.00,SE,145,9.0,12.0,43,0.00,,,-99.99,,2013-04-26 03:21:00,
2013-04-25 22:33:00,50.0,30.0,-100.00,SE,140,8.0,11.0,45,0.00,,,-99.99,,2013-04-26 03:33:00,
2013-04-25 22:43:00,50.0,30.0,-100.00,SE,140,8.0,11.0,45,0.00,,,-99.99,,2013-04-26 03:43:00,
2013-04-25 22:53:00,50.0,31.0,-100.00,SE,135,7.0,11.0,47,0.00,,,-99.99,,2013-04-26 03:53:00,
2013-04-25 23:02:00,50.0,31.0,-100.00,SE,135,7.0,11.0,47,0.00,,,-99.99,,2013-04-26 04:02:00,
2013-04-25 23:12:00,50.0,31.0,-100.00,SE,145,9.0,12.0,47,0.00,,,-99.99,,2013-04-26 04:12:00,
2013-04-25 23:22:00,50.0,31.0,-100.00,SE,140,10.0,14.0,47,0.00,,,-99.99,,2013-04-26 04:22:00,
2013-04-25 23:32:00,50.0,31.0,-100.00,SE,145,10.0,13.0,48,0.00,,,-99.99,,2013-04-26 04:32:00,
2013-04-25 23:43:00,50.0,31.0,-100.00,SE,145,10.0,13.0,48,0.00,,,-99.99,,2013-04-26 04:43:00,
2013-04-25 23:52:00,49.0,31.0,-100.00,SE,135,9.0,13.0,49,0.00,,,-99.99,,2013-04-26 04:52:00,